User: anonymous   Login
Location: Forst
(46.9333°N, 15.4333°E)
Time: 08:38:29
(UTC+00:00)
Language:

TIANQI-6 - Orbit

View from above orbital plane
View from above orbital plane
View from above satellite
View from above satellite

Ground track
Ground track

The orbit data is extracted from the following two-line orbital elements,

1 46810U 20076D   21169.45280740  .00000171  00000-0  19497-4 0  9996
2 46810  35.0061 274.6845 0013595 174.9109 185.1729 14.91484895 35066
Epoch (UTC): 18 June 2021 10:52:02
Eccentricity: 0.0013595
inclination: 35.0061°
perigee height: 584 km
apogee height: 603 km
right ascension of ascending node: 274.6845°
argument of perigee: 174.9109°
revolutions per day: 14.91484895
mean anomaly at epoch: 185.1729°
orbit number at epoch: 3506

The dashed part of the orbit path shows where the satellite is in the earth's shadow,  

DLR